Regional Weather Roundup
Issued by NWS

Home | Current Version | Previous Version | Graphics & Text | Print | Product List | Glossary Off
Versions: 1 2 3 4 5 6 7 8 9 10 11 12 13 14 15 16 17 18 19 20 21 22 23 24 25 26 27 28 29 30 31 32 33 34 35 36 37 38 39 40 41 42 43 44 45 46 47 48 49 50

000
ASUS45 KCYS 200910
RWRWY

WYOMING REGIONAL WEATHER ROUNDUP
NATIONAL WEATHER SERVICE CHEYENNE WY
200 AM MST TUE FEB 20 2018

NOTE:  "FAIR" INDICATES FEW OR NO CLOUDS BELOW 12,000 FEET
WITH NO SIGNIFICANT WEATHER AND/OR OBSTRUCTIONS TO VISIBILITY.

WYZ001-201000-
YELLOWSTONE NATIONAL PARK

CITY           SKY/WX    TMP DP  RH WIND       PRES   REMARKS
LK YELLOWSTONE   N/A    -27 -32  77 CALM      29.66R
W YELLOWSTONE  NOT AVBL

$$
WYZ002>013-054>058-071-098>099-201000-
NORTHERN WYOMING

CITY           SKY/WX    TMP DP  RH WIND       PRES   REMARKS
JACKSON        CLOUDY     0  -8  69 N12       29.72R WCI -17
CODY           FAIR     -15 -20  78 S5        29.88R WCI -27
GREYBULL       MOCLDY   -11 -13  91 E5        30.00R WCI -23
WORLAND        FAIR      -9 -12  87 S7        29.96S WCI -24
SHERIDAN       FAIR      -4 -10  75 W9        29.95F WCI -20
BUFFALO        CLOUDY    -6 -12  75 NW6       29.85S WCI -19
GILLETTE       FAIR     -12 -17  78 W9        29.89F WCI -30
HULETT         PTSUNNY   -6  -9  84 MISG      29.91S
NEWCASTLE      CLOUDY    -4  -9  77 N13       29.89S WCI -23

$$
WYZ014>020-022>026-101>103-201000-
CENTRAL WYOMING

CITY           SKY/WX    TMP DP  RH WIND       PRES   REMARKS
BIG PINEY      CLOUDY    -1  -5  82 CALM      29.71R
PINEDALE       CLOUDY    -2  -6  84 CALM      29.71S
DUBOIS         NOT AVBL
LANDER         FAIR      -6 -10  83 NW6       29.82R WCI -19
RIVERTON       FAIR      -8 -16  67 NE3       29.83R
CASPER         MOCLDY   -15 -19  82 SW9       29.85R WCI -34
DOUGLAS        FAIR      -7 -13  75 NW12      29.87R WCI -26

$$
WYZ021-027>030-104>119-201000-
SOUTHERN WYOMING

CITY           SKY/WX    TMP DP  RH WIND       PRES   REMARKS
EVANSTON       CLOUDY     6   2  83 SW6       29.69R WCI  -4
FORT BRIDGER   FAIR      -6  -9  84 N7        29.72R WCI -20
ROCK SPRINGS   CLOUDY    -3  -9  75 E5        29.73R WCI -13
DIXON          FLURRIES  -2  -7  80 SW3       29.79R
RAWLINS        CLOUDY    -8 -13  78 SW3       29.71R
SARATOGA       CLOUDY   -11 -17  77 S6        29.70R WCI -25
LARAMIE        CLOUDY   -10 -14  82 N3        29.64R
CHEYENNE       FAIR      -5 -10  79 N6G16     29.71R WCI -18
TORRINGTON     FAIR      -1  -6  79 NW3       29.91R
PINE BLUFFS    CLOUDY    -2  -8  78 MISG      29.82R

$$



USA.gov is the U.S. government's official web portal to all federal, state and local government web resources and services.